Regional Weather Roundup
Issued by NWS

Home | Current Version | Previous Version | Graphics & Text | Print | Product List | Glossary Off
Versions: 1 2 3 4 5 6 7 8 9 10 11 12 13 14 15 16 17 18 19 20 21 22 23 24 25 26 27 28 29 30 31 32 33 34 35 36 37 38 39 40 41 42 43 44 45 46 47 48 49 50

000
ASUS43 KDMX 290801
RWRIA

WEATHER ROUNDUP FOR IOWA
NATIONAL WEATHER SERVICE DES MOINES IA
300 AM CDT SAT APR 29 2017

NOTE: "FAIR" INDICATES FEW OR NO CLOUDS BELOW 12,000 FEET WITH NO
SIGNIFICANT WEATHER AND/OR OBSTRUCTIONS TO VISIBILITY.

* - THESE STATIONS ARE NOT NWS STATIONS...THUS NOT UNDER NWS
QUALITY CONTROL.  THEY ALSO DO NOT REPORT WEATHER SUCH
AS PRECIPITATION OR FOG.

IAZ001>003-012>014-020>022-031>034-043>046-290900-
   NORTHWEST IOWA

CITY           SKY/WX    TMP DP  RH WIND       PRES   REMARKS
CARROLL *      CLOUDY    43  37  81 N14G21    30.05F
CHEROKEE *     MOCLDY    37  33  85 N7        30.11F WCI  32
DENISON *      CLOUDY    41  36  81 NE12      30.04F
LE MARS *      CLOUDY    37  32  81 N5        30.13F WCI  34
ORANGE CITY *  CLOUDY    39  30  70 N8        30.12F WCI  34
SHELDON *      CLOUDY    36  30  80 N10       30.10F WCI  28
SIOUX CITY     CLOUDY    43  34  70 N14       30.08F
SPENCER        CLOUDY    38  31  76 N9        30.13F WCI  31
$$

IAZ055>058-069>071-079>083-090>094-290900-
   SOUTHWEST IOWA

CITY           SKY/WX    TMP DP  RH WIND       PRES   REMARKS
ATLANTIC *     CLOUDY    41  37  87 NE15G23   30.01S
AUDUBON *      CLOUDY    39  36  87 N13       30.03F WCI  32
CLARINDA *     CLOUDY    45  39  81 NE12G17   30.03R
COUNCIL BLFS * MOCLDY    41  41 100 NE15G21   30.00F
CRESTON *      CLOUDY    43  39  87 NE15G24   30.04R
HARLAN  *      MOCLDY    41  37  87 N14       30.05F
LAMONI         CLOUDY    43  41  93 NE20G25   29.98R
RED OAK *      CLOUDY    43  39  87 NE17G23   30.00S
SHENANDOAH *   CLOUDY    45  39  81 NE17G23   30.00S
$$

IAZ047>049-059>061-072>074-084-290900-
   CENTRAL IOWA

CITY           SKY/WX    TMP DP  RH WIND       PRES   REMARKS
AMES           CLOUDY    44  37  76 NE13      30.05S
ANKENY *       CLOUDY    43  37  81 NE14      30.04R
BOONE *        CLOUDY    41  37  87 NE12      30.04R
CHARITON *     CLOUDY    43  41  93 NE10G16   30.03R
DES MOINES     CLOUDY    45  36  70 NE17G26   30.02R
GRINNELL*      CLOUDY    42  38  86 NE12      30.04R
KNOXVILLE *    CLOUDY    45  39  81 NE10      30.04R
MARSHALLTOWN   CLOUDY    41  37  86 NE8       30.05R
NEWTON *       CLOUDY    43  39  87 NE14G21   30.02R
PELLA *        CLOUDY    44  38  80 E7        30.09R
PERRY *        CLOUDY    43  38  82 NE10      30.04S
$$

IAZ004>006-015-016-023>025-035-036-290900-
   NORTH CENTRAL IOWA

CITY           SKY/WX    TMP DP  RH WIND       PRES   REMARKS
ALGONA *       CLOUDY    36  32  87 N7        30.10F WCI  30
CLARION *      MOCLDY    39  36  87 N13       30.06F WCI  32
ESTHERVILLE    CLOUDY    33  30  88 N8        30.13F WCI  26
FORT DODGE *   CLOUDY    39  30  70 N9        30.09S WCI  33
MASON CITY     PTCLDY    38  32  79 N14       30.08F WCI  30
FOREST CITY *    N/A     36  30  80 N9        30.09F WCI  29
WEBSTER CITY * CLOUDY    41  36  81 N10       30.04F
IOWA FALLS *     N/A     42  34  73 N14       30.05F
$$

IAZ007>011-017>019-026>030-037>042-050>054-066-290900-
   NORTHEAST IOWA

CITY           SKY/WX    TMP DP  RH WIND       PRES   REMARKS
CEDAR RAPIDS   CLOUDY    44  41  89 E13       30.07R
CHARLES CITY * PTCLDY    39  34  81 N13       30.07S WCI  32
CLINTON *      CLOUDY    45  42  89 NE21      30.02R
DECORAH *      PTCLDY    41  32  70 N9G15     30.04F
DUBUQUE        CLOUDY    44  38  79 NE14      30.04R
MONTICELLO *   CLOUDY    45  39  81 NE8       30.05R
OELWEIN *      CLOUDY    41  36  81 NE14      30.04R
WATERLOO       PTCLDY    40  34  79 N9        30.03S WCI  34
$$

IAZ064-065-067-068-078-290900-
   EAST CENTRAL IOWA

CITY           SKY/WX    TMP DP  RH WIND       PRES   REMARKS
DAVENPORT      CLOUDY    45  42  89 NE16      30.01S
IOWA CITY      LGT RAIN  46  42  86 NE13      30.04R FOG
MT. PLEASANT * CLOUDY    45  45 100 NE16G25   29.98R FOG
MUSCATINE *    CLOUDY    46  43  87 NE16      29.99F
QUAD CITIES    CLOUDY    47  42  83 NE10      29.98F
$$

IAZ062-063-075>077-085>089-095>099-290900-
   SOUTHEAST IOWA

CITY           SKY/WX    TMP DP  RH WIND       PRES   REMARKS
BURLINGTON     CLOUDY    48  47  96 NE22      29.95F FOG
FAIRFIELD *    CLOUDY    45  43  93 NE21      29.98F
FORT MADISON * CLOUDY    46  46 100 NE14G22   29.96R FOG
KEOKUK *       CLOUDY    48  46  93 NE10G17   29.95R FOG
OSKALOOSA *    CLOUDY    43  41  93 NE15      30.01R
CENTERVILLE *  CLOUDY    43  43 100 N10G17    29.96F
OTTUMWA        CLOUDY    45  43  93 NE14      29.99R
WASHINGTON *   CLOUDY    45  45 100 NE17      29.99F
$$

ABBREVIATIONS USED IN REMARKS
   TC - TEMPERATURES IN CELSIUS
  WCI - WIND CHILL INDEX
   HX - HEAT INDEX
  VSB - VISIBILITY
$$





USA.gov is the U.S. government's official web portal to all federal, state and local government web resources and services.